Regional Weather Roundup
Issued by NWS

Home | Current Version | Previous Version | Text Only | Print | Product List | Glossary On
Versions: 1 2 3 4 5 6 7 8 9 10 11 12 13 14 15 16 17 18 19 20 21 22 23 24 25 26 27 28 29 30 31 32 33 34 35 36 37 38 39 40 41 42 43 44 45 46 47 48 49 50
000
ASUS43 KMPX 020401
RWRMN
WEATHER ROUNDUP FOR MINNESOTA
NATIONAL WEATHER SERVICE TWIN CITIES/CHANHASSEN MN
1100 PM CDT FRI AUG 01 2014


NOTE: "FAIR" INDICATES FEW OR NO CLOUDS BELOW 12,000 FEET WITH NO
SIGNIFICANT WEATHER AND/OR OBSTRUCTIONS TO VISIBILITY. N/A MEANS
CURRENT SKY AND/OR WEATHER CONDITIONS ARE NOT AVAILABLE.

MNZ060>063-068>070-020500-
   Twin Cities Metro

CITY           SKY/WX    TMP DP  RH WIND       PRES   REMARKS
$$
MNZ001>005-007-008-013>017-022>024-027-028-020500-
   Northwest Minnesota

CITY           SKY/WX    TMP DP  RH WIND       PRES   REMARKS
THIEF RVR FALL CLEAR     66  59  77 CALM      30.08S
FOSSTON        CLEAR     61  52  72 CALM      30.09S HAZE
DETROIT LAKES  CLEAR     66  61  82 CALM      30.10R
MOORHEAD       CLEAR     70  66  88 CALM      30.08R
$$
MNZ006-009>011-018-025>026-020500-
   North Central Minnesota

CITY           SKY/WX    TMP DP  RH WIND       PRES   REMARKS
LONGVILLE      CLEAR     61  59  94 CALM      30.08S FOG
GRAND RAPIDS   CLEAR     61  57  88 S3        30.08S
COOK           CLEAR     55  54  94 CALM      30.10R
$$
MNZ012-019>021-037-020500-
   Northeast Minnesota

CITY           SKY/WX    TMP DP  RH WIND       PRES   REMARKS
GRAND MARAIS     N/A     53  50  89 NW3       30.11R
$$
MNZ029>031-032-039>041-046>048-054>057-064-020500-
   West Central Minnesota

CITY           SKY/WX    TMP DP  RH WIND       PRES   REMARKS
WHEATON        PTCLDY    66  61  82 CALM      30.09R
WADENA         CLEAR     61  57  88 CALM      30.08S
APPLETON       PTCLDY    68  63  83 CALM      30.07R
WILLMAR        FAIR      68  61  77 CALM      30.09S
$$
MNZ033>034-036-042>043-049>051-058-059-020500-
   Central Minnesota

CITY           SKY/WX    TMP DP  RH WIND       PRES   REMARKS
PAYNESVILLE    CLEAR     62  62 100 CALM      30.09R FOG
LONG PRAIRIE   FAIR      63  61  94 CALM      30.09R
LITTLE FALLS   CLEAR     61  59  94 CALM      30.08R
BUFFALO        CLEAR     68  63  84 CALM      30.08S
MAPLE LAKE     CLEAR     66  64  94 CALM      30.08S
$$
MNZ037-044-045-052-053-020500-
   East Central Minnesota

CITY           SKY/WX    TMP DP  RH WIND       PRES   REMARKS
CAMBRIDGE      CLEAR     70  61  73 CALM      30.06S
RUSH CITY      CLEAR     64  62  92 CALM      30.08S
HINCKLEY       FAIR      63  61  94 CALM      30.08S FOG
CLOQUET        CLEAR     57  52  82 CALM      30.10S
$$
MNZ071>073-080-081-089-090-097-098-020500-
   Southwest Minnesota

CITY           SKY/WX    TMP DP  RH WIND       PRES   REMARKS
MARSHALL       CLEAR     70  61  73 S6          N/A
WORTHINGTON    CLEAR     66  57  72 SE6       30.13S
$$
MNZ065>067-074>077-082>085-091>093-020500-
   South Central Minnesota

CITY           SKY/WX    TMP DP  RH WIND       PRES   REMARKS
MANKATO        CLEAR     73  57  56 SW5       30.09S
ST JAMES       CLEAR     68  61  77 CALM      30.10S
FAIRMONT       CLEAR     64  55  72 S3        30.11R
OWATONNA       CLEAR     63  59  88 CALM      30.10S
WASECA         CLEAR     61  55  82 CALM      30.12R
$$
MNZ078>079-086>088-094>096-020500-
   Southeast Minnesota

CITY           SKY/WX    TMP DP  RH WIND       PRES   REMARKS
RED WING       PTCLDY    66  63  88 CALM      30.07R
WINONA         CLEAR     70  63  78 CALM      30.09R
AUSTIN         CLEAR     63  61  94 CALM      30.11R
$$
ABBREVIATIONS USED IN REMARKS
   TC - TEMPERATURES IN CELSIUS
  WCI - WIND CHILL INDEX
   HX - HEAT INDEX
  VSB - VISIBILITY
$$



USA.gov is the U.S. government's official web portal to all federal, state and local government web resources and services.